EW3247 Weather Reports


time (UTC)temp
C
wind
direction
speed
KPH
gust
KPH
rain 1hr
cm
rain 24hr
cm
rain mn
cm
humidity
%
barometer
mb
20260507095027 11 0.0 0.0 0.00 0.79 0.30 97 1011.5
20260507094038 11 0.0 0.0 0.00 0.79 0.30 97 1011.4
20260507093026 11 0.0 0.0 0.00 0.79 0.30 96 1011.6
20260507092018 11 0.0 0.0 0.00 0.79 0.30 96 1011.6
20260507091026 11 0.0 0.0 0.00 0.79 0.30 96 1011.6
20260507090037 11 0.0 0.0 0.00 0.79 0.30 96 1011.4
20260507085025 11 0.0 0.0 0.00 0.79 0.30 96 1011.2
20260507084019 11 0.0 0.0 0.00 0.79 0.30 96 1011.2
20260507083027 11 0.0 0.0 0.00 0.79 0.30 96 1010.9
20260507082019 11 0.0 0.0 0.00 0.79 0.30 95 1010.9
20260507081027 11 0.0 0.0 0.00 0.79 0.30 95 1010.6
20260507080034 11 55 0.0 1.6 0.00 0.79 0.30 95 1010.7
20260507075046 11 0.0 0.0 0.00 0.79 0.30 95 1010.5
20260507074018 11 345 0.0 1.6 0.00 0.79 0.30 94 1010.4
20260507073046 11 137 0.0 1.6 0.00 0.79 0.30 94 1010.6
20260507072037 11 25 0.0 1.6 0.00 0.79 0.30 94 1010.4
20260507071027 11 9 1.6 3.2 0.03 0.79 0.30 95 1010.5
20260507070019 11 8 1.6 1.6 0.03 0.79 0.30 96 1010.7
20260507065027 11 25 0.0 1.6 0.03 0.79 0.30 96 1010.8
20260507064019 11 340 0.0 1.6 0.03 0.79 0.30 97 1010.5
20260507063046 12 16 0.0 1.6 0.03 0.79 0.30 97 1010.3
20260507062018 12 39 0.0 1.6 0.05 0.79 0.30 97 1010.5
20260507061026 12 11 0.0 1.6 0.03 0.76 0.28 97 1010.7
20260507060017 12 28 0.0 1.6 0.05 0.76 0.28 97 1010.4
20260507055026 12 0.0 0.0 0.13 0.76 0.28 96 1010.8
20260507054035 12 0.0 0.0 0.28 0.76 0.28 96 1010.6
20260507053027 12 0.0 0.0 0.28 0.76 0.28 96 1011.0
20260507052019 12 0.0 0.0 0.23 0.71 0.23 95 1010.7
20260507051034 13 54 0.0 1.6 0.23 0.71 0.23 94 1010.6
20260507050040 13 7 0.0 3.2 0.20 0.69 0.20 93 1010.9
20260507045035 13 329 0.0 1.6 0.15 0.64 0.15 91 1010.9
20260507044019 14 291 0.0 3.2 0.00 0.48 0.00 87 1010.6
20260507043027 14 321 0.0 3.2 0.00 0.48 0.00 86 1010.6
20260507042019 15 338 1.6 3.2 0.00 0.48 0.00 85 1010.6
20260507041026 15 323 1.6 3.2 0.00 0.48 0.00 85 1010.4
20260507040038 16 15 0.0 1.6 0.00 0.48 0.00 86 1010.0
20260507035026 16 245 0.0 3.2 0.00 0.48 0.48 85 1009.7
20260507034018 16 75 0.0 1.6 0.00 0.48 0.48 84 1009.9
20260507033048 16 291 0.0 3.2 0.00 0.48 0.48 84 1010.2
20260507032019 16 12 0.0 1.6 0.00 0.48 0.48 83 1009.8
20260507031027 16 21 0.0 1.6 0.00 0.48 0.48 83 1009.9
20260507030019 16 296 0.0 3.2 0.00 0.48 0.48 82 1009.5
20260507025027 16 13 1.6 1.6 0.00 0.48 0.48 82 1009.6
20260507024018 17 334 0.0 1.6 0.00 0.48 0.48 83 1009.7
20260507023026 17 291 0.0 1.6 0.00 0.48 0.48 83 1009.4
20260507022018 17 257 1.6 4.8 0.00 0.48 0.48 84 1009.5
20260507021016 17 6 1.6 1.6 0.00 0.48 0.48 88 1009.5
20260507020019 18 35 0.0 1.6 0.00 0.48 0.48 87 1009.5
20260507015027 18 39 0.0 1.6 0.00 0.48 0.48 87 1009.0
20260507014019 18 171 0.0 1.6 0.00 0.48 0.48 86 1009.4
20260507013027 18 313 0.0 1.6 0.00 0.48 0.48 86 1009.5
20260507012027 18 240 1.6 4.8 0.00 0.48 0.48 85 1009.5
20260507011037 18 5 1.6 4.8 0.00 0.48 0.48 88 1009.5
20260507010018 18 0.0 0.0 0.00 0.48 0.48 88 1009.3
20260507005026 18 0.0 0.0 0.00 0.48 0.48 87 1009.1
20260507004035 19 0.0 0.0 0.00 0.48 0.48 87 1009.0
20260507003107 19 0.0 0.0 0.00 0.48 0.48 87 1009.1
20260507002019 19 73 0.0 1.6 0.00 0.48 0.48 86 1008.9
20260507001017 19 0.0 0.0 0.00 0.48 0.48 86 1008.8
20260507000019 19 0.0 0.0 0.00 0.48 0.48 86 1008.7
20260506235047 19 76 0.0 1.6 0.00 0.48 0.48 86 1008.5
20260506234034 19 84 0.0 1.6 0.00 0.48 0.48 85 1008.4
20260506233046 20 79 0.0 1.6 0.00 0.48 0.48 85 1008.4
20260506232018 20 77 0.0 3.2 0.00 0.48 0.48 84 1008.2
20260506231020 20 86 0.0 1.6 0.00 0.48 0.48 83 1008.3
20260506230054 20 42 0.0 1.6 0.00 0.48 0.48 82 1008.3
20260506225027 21 158 0.0 1.6 0.00 0.48 0.48 81 1008.1
20260506224019 20 143 0.0 1.6 0.00 0.48 0.48 82 1008.0
20260506223027 20 0.0 0.0 0.00 0.48 0.48 83 1008.1
20260506222019 20 118 1.6 3.2 0.00 0.48 0.48 83 1008.2
20260506221020 20 148 0.0 1.6 0.00 0.48 0.48 83 1008.3
20260506220018 20 69 0.0 1.6 0.00 0.48 0.48 83 1008.2
20260506215028 20 114 0.0 3.2 0.00 0.48 0.48 82 1008.2
20260506214020 21 155 1.6 1.6 0.00 0.48 0.48 81 1008.1
20260506213028 21 91 0.0 4.8 0.00 0.48 0.48 81 1007.9
20260506212019 21 124 1.6 4.8 0.00 0.48 0.48 81 1007.8
20260506211021 21 179 0.0 1.6 0.00 0.48 0.48 80 1007.8
20260506210019 21 93 0.0 3.2 0.00 0.48 0.48 80 1007.7
20260506205027 21 147 0.0 4.8 0.00 0.48 0.48 80 1007.5
20260506204018 21 111 1.6 4.8 0.00 0.48 0.48 80 1007.5
20260506203028 21 67 0.0 4.8 0.00 0.48 0.48 77 1007.7
20260506202040 21 97 0.0 1.6 0.00 0.48 0.48 77 1007.6
20260506201022 21 115 1.6 4.8 0.00 0.48 0.48 78 1007.5
20260506200020 22 110 1.6 4.8 0.00 0.48 0.48 76 1007.6
20260506195027 22 230 1.6 3.2 0.00 0.48 0.48 76 1007.6
20260506194019 21 201 1.6 6.4 0.00 0.48 0.48 77 1007.6
20260506193027 21 190 1.6 4.8 0.00 0.48 0.48 78 1007.7
20260506192019 21 180 1.6 4.8 0.00 0.48 0.48 79 1007.8
20260506191022 20 130 1.6 4.8 0.00 0.48 0.48 80 1007.9
20260506190020 20 197 1.6 6.4 0.00 0.48 0.48 80 1008.0
20260506185048 20 238 3.2 9.7 0.00 0.48 0.48 82 1008.2
20260506184020 19 114 1.6 4.8 0.00 0.48 0.48 84 1008.3
20260506183027 18 120 1.6 4.8 0.00 0.48 0.48 85 1008.3
20260506182019 18 203 1.6 4.8 0.00 0.48 0.48 85 1008.4
20260506181023 18 106 0.0 3.2 0.00 0.48 0.48 86 1008.4
20260506180019 18 149 1.6 11.3 0.00 0.48 0.48 86 1008.6
20260506175028 18 148 1.6 4.8 0.00 0.48 0.48 86 1008.6
20260506174020 18 183 1.6 4.8 0.00 0.48 0.48 86 1008.5
20260506173028 17 138 1.6 4.8 0.00 0.48 0.48 88 1008.5
20260506172020 17 159 3.2 14.5 0.00 0.48 0.48 89 1008.7
20260506171025 17 132 1.6 8.0 0.00 0.48 0.48 90 1008.6
20260506170019 17 166 3.2 6.4 0.00 0.48 0.48 91 1008.7
20260506165047 16 75 1.6 8.0 0.00 0.48 0.48 93 1008.7
20260506164019 16 136 1.6 4.8 0.00 0.48 0.48 95 1009.0
20260506163048 16 112 3.2 11.3 0.00 0.48 0.48 96 1008.9
20260506162034 16 145 1.6 6.4 0.03 0.48 0.48 96 1008.9
20260506161026 16 75 1.6 8.0 0.03 0.48 0.48 97 1009.1
20260506160020 16 83 1.6 9.7 0.03 0.48 0.48 97 1009.1
20260506155027 15 97 1.6 4.8 0.03 0.48 0.48 97 1009.1
20260506154019 15 163 3.2 9.7 0.05 0.48 0.48 97 1009.3
20260506153027 15 126 3.2 8.0 0.10 0.48 0.48 97 1009.1
20260506152018 15 119 3.2 9.7 0.10 0.46 0.46 97 1009.3
20260506151027 15 113 3.2 9.7 0.15 0.46 0.46 97 1009.6
20260506150016 15 72 1.6 4.8 0.20 0.46 0.46 97 1009.7
20260506145028 15 91 1.6 6.4 0.23 0.46 0.46 96 1009.8
20260506144100 15 151 1.6 6.4 0.28 0.43 0.43 96 1009.8
20260506143027 15 94 3.2 9.7 0.28 0.38 0.38 96 1009.6
20260506142019 15 113 1.6 9.7 0.23 0.36 0.36 95 1009.8
20260506141027 15 90 1.6 4.8 0.23 0.30 0.30 95 1009.6
20260506140017 16 92 1.6 9.7 0.18 0.23 0.23 94 1009.8
20260506135029 16 85 1.6 1.6 0.18 0.20 0.20 94 1010.0
20260506134020 16 140 1.6 4.8 0.15 0.15 0.15 93 1010.3
20260506133108 16 88 1.6 6.4 0.13 0.13 0.13 93 1010.4
20260506132020 16 106 1.6 3.2 0.13 0.13 0.13 92 1010.1
20260506131043 16 98 1.6 3.2 0.05 0.05 0.05 91 1009.9
20260506130017 16 123 1.6 4.8 0.05 0.05 0.05 90 1009.9
20260506125107 16 93 1.6 3.2 0.03 0.03 0.03 89 1009.5
20260506124021 16 103 1.6 4.8 0.00 0.00 0.00 87 1009.7
20260506123048 17 78 0.0 3.2 0.00 0.00 0.00 86 1009.8
20260506122020 17 76 0.0 4.8 0.00 0.00 0.00 85 1010.1
20260506121028 17 87 0.0 4.8 0.00 0.00 0.00 84 1010.2
20260506120020 17 178 1.6 4.8 0.00 0.00 0.00 81 1010.0
20260506115028 17 117 1.6 6.4 0.00 0.00 0.00 79 1010.0
20260506114019 17 131 1.6 4.8 0.00 0.00 0.00 78 1009.8
20260506113027 18 165 1.6 4.8 0.00 0.00 0.00 78 1009.6
20260506112019 18 117 1.6 8.0 0.00 0.00 0.00 77 1009.4
20260506111029 18 144 3.2 8.0 0.00 0.00 0.00 77 1009.4
20260506110100 17 71 1.6 4.8 0.00 0.00 0.00 78 1009.3
20260506105028 17 143 1.6 8.0 0.00 0.00 0.00 77 1009.4
20260506104100 17 142 1.6 9.7 0.00 0.00 0.00 77 1009.2
20260506103028 17 162 1.6 9.7 0.00 0.00 0.00 77 1009.1
20260506102020 17 116 1.6 12.9 0.00 0.00 0.00 77 1009.2
20260506101047 17 140 1.6 8.0 0.00 0.00 0.00 78 1009.2
20260506100019 17 113 1.6 4.8 0.00 0.00 0.00 78 1009.1